Home   Weather   50°00'N, 8°39'E   Past weeks
Flag for Germany

Past Weather in 50°00'N, 8°39'E, Germany — Yesterday and Last 2 Weeks

Now
68 °F

Passing clouds.


Feels Like: 68 °F
Forecast: 72 / 49 °F
Wind: 13 mph from East

Location: Frankfurt-M-Flughafen Airport

Current Time: Apr 18, 2019 at 2:38:04 pm

Latest Report: Apr 18, 2019 at 2:20 pm


Visibility: N/A

Pressure: 30.21 "Hg

Humidity: 35%

Dew Point: 39 °F

Location of 50°00'N, 8°39'ELocation

Past Weather in 50°00'N, 8°39'E — Graph

°F

50°00'N, 8°39'E Temperature Yesterday

Maximum temperature yesterday: 64 °F (at 4:20 pm)
Minimum temperature yesterday: 50 °F (at 2:50 am)
Average temperature yesterday: 57 °F

High & Low Weather Summary for the Past Weeks

 TemperatureHumidityPressure
High68 °F (Apr 7, 5:20 pm)100% (Apr 3, 11:20 pm)30.27 "Hg (Apr 3, 11:20 pm)
Low34 °F (Apr 12, 6:20 am)30% (Apr 7, 5:20 pm)29.47 "Hg (Apr 4, 7:20 am)
Average49 °F66%29.93 "Hg
* Reported Apr 3 1:20 pm — Apr 18 1:20 pm, 50°00'N, 8°39'E. Weather by CustomWeather, © 2019

Note: Actual official high and low records may vary slightly from our data, if they occured in-between our weather recording intervals... More about our weather records

Advertising

50°00'N, 8°39'E Weather History for the Previous 24 Hours

Scroll right to see more
 ConditionsComfort  
Time TempWeatherWind HumidityBarometerVisibility
1:20 pm
Thu, Apr 18
66 °FSunny.15 mph37%30.24 "Hg10 mi
12:50 pm66 °FSunny.17 mph37%30.24 "Hg10 mi
12:20 pm64 °FSunny.17 mph40%30.24 "Hg10 mi
11:50 am64 °FPassing clouds.16 mph40%30.27 "HgN/A
11:20 am63 °FPassing clouds.14 mph45%30.27 "HgN/A
10:50 am63 °FPassing clouds.13 mph45%30.27 "HgN/A
10:20 am59 °FSunny.15 mph51%30.27 "Hg10 mi
9:50 am59 °FPassing clouds.13 mph51%30.27 "HgN/A
9:20 am57 °FSunny.12 mph51%30.27 "Hg10 mi
8:50 am55 °FSunny.13 mph55%30.27 "Hg10 mi
8:20 am54 °FSunny.10 mph58%30.27 "Hg10 mi
7:50 am52 °FSunny.12 mph62%30.27 "Hg10 mi
7:20 am50 °FSunny.10 mph67%30.27 "Hg10 mi
6:50 am52 °FSunny.10 mph58%30.24 "Hg10 mi
6:20 am52 °FClear.12 mph58%30.24 "Hg10 mi
5:50 am52 °FClear.12 mph58%30.24 "Hg10 mi
5:20 am54 °FClear.12 mph54%30.24 "Hg10 mi
4:50 am54 °FClear.12 mph54%30.24 "Hg10 mi
4:20 am52 °FClear.9 mph58%30.24 "Hg10 mi
3:50 am54 °FClear.10 mph51%30.21 "Hg10 mi
3:20 am54 °FClear.10 mph51%30.21 "Hg10 mi
2:50 am54 °FClear.10 mph51%30.21 "Hg10 mi
2:20 am52 °FPassing clouds.6 mph54%30.21 "HgN/A
1:50 am55 °FClear.7 mph47%30.21 "Hg10 mi
1:20 am54 °FClear.7 mph54%30.21 "Hg10 mi
12:50 am55 °FClear.5 mph51%30.21 "Hg10 mi
12:20 am54 °FPassing clouds.7 mph54%30.21 "HgN/A
11:50 pm
Wed, Apr 17
57 °FClear.9 mph48%30.18 "Hg10 mi
11:20 pm57 °FClear.13 mph51%30.18 "Hg10 mi
10:50 pm59 °FClear.15 mph48%30.18 "Hg10 mi
10:20 pm59 °FClear.16 mph48%30.18 "Hg10 mi
9:50 pm59 °FClear.16 mph48%30.18 "Hg10 mi
9:20 pm61 °FClear.10 mph42%30.18 "Hg10 mi
8:50 pm61 °FClear.10 mph42%30.18 "Hg10 mi
8:20 pm63 °FSunny.10 mph39%30.15 "Hg10 mi
7:50 pm63 °FSunny.10 mph39%30.15 "Hg10 mi
7:20 pm64 °FSunny.9 mph37%30.15 "Hg10 mi
6:50 pm64 °FPassing clouds.9 mph37%30.15 "HgN/A
6:20 pm64 °FPassing clouds.10 mph37%30.15 "HgN/A
5:50 pm64 °FPassing clouds.10 mph40%30.15 "HgN/A
5:20 pm64 °FSunny.8 mph46%30.18 "Hg10 mi
4:50 pm63 °FPassing clouds.6 mph45%30.18 "HgN/A
4:20 pm64 °FPassing clouds.7 mph43%30.18 "HgN/A
3:50 pm63 °FPassing clouds.8 mph49%30.18 "HgN/A
3:20 pm61 °FPassing clouds.6 mph48%30.18 "HgN/A
2:50 pm61 °FPassing clouds.10 mph55%30.21 "HgN/A
2:20 pm59 °FPassing clouds.13 mph59%30.21 "HgN/A
Weather by CustomWeather, © 2019

See weather overview